Home > Weather > Scarborough > Past weeks

Flag for Trinidad and Tobago Past Weather in Scarborough, Trinidad and Tobago — Yesterday and Last 2 Weeks

Now
86 °F

Passing clouds.


Feels Like: 97 °F
Forecast: 80 / 88 °F
Wind: 10 mph from Southeast

Location: Crown Pt./ Scarborou

Current Time: Aug 29, 2016 at 2:14:13 PM

Latest Report: Aug 29, 2016 at 1:00 PM


Visibility: N/A

Pressure: 29.95 "Hg

Humidity: 75%

Dew Point: 77 °F

Location of ScarboroughLocation

Past Weather in Scarborough — Graph

°F

Scarborough Temperature Yesterday

Maximum temperature yesterday: 90 °F (at 11:00 AM)
Minimum temperature yesterday: 79 °F (at 3:00 AM)
Average temperature yesterday: 83 °F

High & Low Weather Summary for the Past Weeks

 TemperatureHumidityPressure
High91 °F (Aug 20, 2:00 PM)89% (Aug 14, 1:00 PM)30.01 "Hg (Aug 14, 1:00 PM)
Low77 °F (Aug 23, 3:00 AM)55% (Aug 18, 12:00 PM)29.83 "Hg (Aug 24, 5:00 PM)
Average83 °F73%29.92 "Hg
* Reported Aug 14 1:00 PM — Aug 29 1:00 PM, Scarborough, Weather by CustomWeather, © 2016

Note: Actual official high and low records may vary slightly from our data, if they occured in-between our weather recording intervals... More about our weather records

Advertising

Scarborough Weather History for the Previous 24 Hours

Scroll right to see more
 ConditionsComfort  
Time TempWeatherWind HumidityBarometerVisibility
1:00 PM
Mon, Aug 29
86 °FPassing clouds.10 mph75%29.95 "HgN/A
12:00 PM86 °FScattered clouds.9 mph70%29.95 "HgN/A
11:00 AM84 °FScattered clouds.7 mph74%30.01 "HgN/A
10:00 AM82 °FScattered clouds.10 mph79%29.98 "HgN/A
9:00 AM81 °FScattered showers. Scattered clouds.15 mph84%29.98 "Hg6 mi
8:00 AM79 °FScattered showers. Scattered clouds.15 mph89%29.98 "Hg5 mi
7:00 AM79 °FScattered clouds.14 mph84%29.98 "HgN/A
5:00 AM79 °FPassing clouds.6 mph89%29.92 "HgN/A
4:00 AM81 °FThunderstorms. Passing clouds.6 mph79%29.89 "HgN/A
3:00 AM81 °FThunderstorms. Passing clouds.5 mph84%29.92 "HgN/A
2:00 AM81 °FPassing clouds.6 mph84%29.92 "HgN/A
1:00 AM79 °FPassing clouds.6 mph89%29.92 "HgN/A
12:00 AM79 °FPassing clouds.6 mph89%29.95 "HgN/A
11:00 PM
Sun, Aug 28
79 °FThunderstorms. Passing clouds.6 mph84%29.95 "HgN/A
10:00 PM82 °FPassing clouds.No wind79%29.95 "HgN/A
9:00 PM82 °FPassing clouds.No wind74%29.92 "HgN/A
8:00 PM82 °FPassing clouds.No wind74%29.92 "HgN/A
7:00 PM82 °FPassing clouds.No wind74%29.89 "HgN/A
6:00 PM84 °FScattered clouds.No wind70%29.89 "HgN/A
5:00 PM84 °FPassing clouds.No wind74%29.89 "HgN/A
4:00 PM84 °FPassing clouds.No wind70%29.89 "HgN/A
3:00 PM84 °FPassing clouds.6 mph70%29.89 "HgN/A
2:00 PM84 °FScattered clouds.8 mph70%29.92 "HgN/A
Weather by CustomWeather, © 2016

See weather overviewHow to use our weather pages